FW6558 Weather Reports


Display with metric or nautical units.
time (UTC)temp
F
wind
direction
speed
MPH
gust
MPH
rain 1hr
in
rain 24hr
in
rain mn
in
humidity
%
barometer
mb
20260507005806 65 184 5.0 16.0 0.00 0.19 0.19 74 1010.9
20260507005307 64 239 3.0 8.0 0.00 0.19 0.19 74 1011.0
20260507004806 65 229 4.0 12.0 0.00 0.19 0.19 74 1010.6
20260507004307 65 249 5.0 14.0 0.00 0.19 0.19 73 1010.8
20260507003806 65 228 7.0 14.0 0.00 0.19 0.19 72 1010.4
20260507003306 65 226 5.0 12.0 0.00 0.19 0.19 72 1010.5
20260507002806 65 246 6.0 13.0 0.00 0.19 0.19 71 1011.0
20260507002306 65 257 5.0 10.0 0.00 0.19 0.19 72 1011.0
20260507001806 65 246 5.0 10.0 0.00 0.19 0.19 72 1011.0
20260507001306 65 259 5.0 10.0 0.00 0.19 0.19 71 1011.0
20260507000806 65 252 5.0 8.0 0.00 0.19 0.19 72 1010.7
20260507000306 65 272 3.0 9.0 0.00 0.19 0.19 71 1010.6
20260506235806 65 253 4.0 9.0 0.00 0.19 0.19 71 1010.5
20260506235307 66 268 3.0 7.0 0.00 0.19 0.19 70 1010.5
20260506234806 66 259 4.0 12.0 0.00 0.19 0.19 70 1010.8
20260506234306 66 275 7.0 14.0 0.00 0.19 0.19 69 1010.8
20260506233806 66 267 8.0 14.0 0.00 0.19 0.19 69 1010.3
20260506233306 66 238 5.0 12.0 0.00 0.19 0.19 69 1010.3
20260506232806 66 236 6.0 13.0 0.00 0.19 0.19 69 1010.3
20260506232306 66 258 8.0 13.0 0.00 0.19 0.19 69 1010.2
20260506231806 67 255 5.0 13.0 0.00 0.19 0.19 69 1010.1
20260506231306 67 271 9.0 13.0 0.00 0.19 0.19 68 1010.5
20260506230806 67 269 5.0 10.0 0.00 0.19 0.19 69 1010.6
20260506230306 67 279 3.0 6.0 0.00 0.19 0.19 69 1010.3
20260506225306 69 276 7.0 12.0 0.00 0.19 0.19 66 1009.6
20260506224806 68 263 4.0 10.0 0.00 0.19 0.19 66 1009.8
20260506224306 68 264 6.0 13.0 0.00 0.19 0.19 66 1009.9
20260506223806 68 218 7.0 13.0 0.00 0.19 0.19 65 1009.9
20260506223306 69 238 6.0 12.0 0.00 0.19 0.19 64 1010.0
20260506222806 69 263 5.0 12.0 0.00 0.19 0.19 65 1009.6
20260506222306 68 260 6.0 12.0 0.00 0.19 0.19 64 1009.7
20260506221806 68 277 6.0 12.0 0.00 0.19 0.19 65 1010.0
20260506220805 68 256 6.0 17.0 0.00 0.19 0.19 66 1010.5
20260506220306 68 271 7.0 18.0 0.00 0.19 0.19 65 1010.4
20260506215805 69 254 6.0 13.0 0.00 0.19 0.19 64 1010.4
20260506215306 69 224 7.0 16.0 0.00 0.19 0.19 64 1010.2
20260506214806 69 269 12.0 16.0 0.00 0.19 0.19 64 1010.4
20260506214306 69 243 10.0 24.0 0.00 0.19 0.19 64 1010.3
20260506213806 69 244 8.0 16.0 0.00 0.19 0.19 64 1010.0
20260506212307 70 255 12.0 23.0 0.00 0.19 0.19 62 1009.5
20260506211805 70 263 9.0 21.0 0.00 0.19 0.19 63 1009.3
20260506211306 69 258 5.0 18.0 0.00 0.19 0.19 63 1009.6
20260506210805 71 262 11.0 16.0 0.00 0.19 0.19 60 1009.3
20260506210305 70 310 5.0 17.0 0.00 0.19 0.19 64 1009.4
20260506205806 70 275 10.0 17.0 0.00 0.19 0.19 62 1009.4
20260506205306 70 267 6.0 14.0 0.00 0.19 0.19 62 1009.2
20260506204806 69 276 7.0 26.0 0.00 0.19 0.19 63 1009.5
20260506204305 69 262 11.0 24.0 0.00 0.19 0.19 63 1009.3
20260506203806 70 263 13.0 24.0 0.00 0.19 0.19 62 1009.1
20260506203305 70 267 9.0 15.0 0.00 0.19 0.19 64 1009.0
20260506202805 69 278 6.0 22.0 0.00 0.19 0.19 64 1009.6
20260506202306 69 247 16.0 24.0 0.00 0.19 0.19 63 1009.7
20260506200805 70 279 11.0 16.0 0.00 0.19 0.19 63 1009.4
20260506200306 70 260 3.0 15.0 0.00 0.19 0.19 60 1009.6
20260506195805 70 301 9.0 15.0 0.00 0.19 0.19 62 1009.6
20260506194805 71 241 9.0 15.0 0.00 0.19 0.19 61 1009.5
20260506194305 70 250 6.0 16.0 0.00 0.19 0.19 64 1009.8
20260506193806 69 238 5.0 16.0 0.00 0.19 0.19 65 1009.8
20260506192805 69 261 10.0 16.0 0.00 0.19 0.19 64 1010.1
20260506192306 69 266 6.0 10.0 0.00 0.19 0.19 64 1009.8
20260506191805 70 230 5.0 13.0 0.00 0.19 0.19 65 1009.7
20260506191305 70 268 5.0 10.0 0.00 0.19 0.19 68 1009.7
20260506190305 69 242 2.0 13.0 0.00 0.19 0.19 68 1009.9
20260506185805 69 241 5.0 12.0 0.00 0.19 0.19 70 1009.9
20260506185307 68 277 6.0 12.0 0.00 0.19 0.19 69 1009.8
20260506184805 68 229 3.0 12.0 0.00 0.19 0.19 73 1010.2
20260506184305 67 241 7.0 12.0 0.00 0.19 0.19 74 1010.1
20260506183805 67 224 6.0 10.0 0.00 0.19 0.19 71 1010.1
20260506183305 67 238 3.0 7.0 0.00 0.19 0.19 72 1010.2
20260506182805 67 240 3.0 13.0 0.00 0.19 0.19 73 1010.2
20260506182307 67 124 2.0 12.0 0.00 0.19 0.19 73 1010.5
20260506181805 66 266 7.0 12.0 0.00 0.19 0.19 73 1010.8
20260506181305 66 267 5.0 7.0 0.00 0.19 0.19 75 1010.7
20260506180805 65 264 4.0 9.0 0.00 0.19 0.19 76 1011.1
20260506175805 65 199 6.0 10.0 0.00 0.19 0.19 78 1011.1
20260506174805 64 244 3.0 10.0 0.00 0.19 0.19 78 1011.1
20260506174305 64 254 7.0 12.0 0.00 0.19 0.19 79 1011.1
20260506173305 64 236 10.0 20.0 0.00 0.19 0.19 78 1011.2
20260506172805 64 250 6.0 14.0 0.00 0.19 0.19 80 1011.6
20260506171305 64 274 3.0 9.0 0.02 0.19 0.19 80 1011.9
20260506170805 64 214 3.0 12.0 0.03 0.19 0.19 79 1012.1
20260506170305 64 188 2.0 7.0 0.03 0.19 0.19 83 1012.6
20260506165805 63 291 5.0 10.0 0.03 0.19 0.19 82 1012.8
20260506165306 63 215 3.0 15.0 0.03 0.19 0.19 85 1013.1
20260506164805 62 242 5.0 10.0 0.03 0.19 0.19 87 1013.4
20260506164305 62 256 7.0 12.0 0.03 0.19 0.19 87 1013.5
20260506163805 62 269 5.0 12.0 0.03 0.19 0.19 88 1014.0
20260506163305 61 253 3.0 8.0 0.03 0.19 0.19 89 1013.9
20260506162805 61 240 4.0 8.0 0.03 0.19 0.19 90 1013.8
20260506162307 61 269 6.0 10.0 0.03 0.19 0.19 90 1013.8
20260506161805 60 227 1.0 2.0 0.02 0.18 0.18 90 1014.1
20260506161305 60 87 1.0 2.0 0.01 0.17 0.17 90 1014.0
20260506160305 60 45 1.0 2.0 0.00 0.16 0.16 89 1013.8
20260506155805 60 94 1.0 3.0 0.00 0.16 0.16 88 1013.6
20260506155306 61 58 1.0 3.0 0.00 0.16 0.16 89 1013.5
20260506154804 60 24 2.0 6.0 0.00 0.16 0.16 90 1013.7
20260506154305 60 356 3.0 6.0 0.00 0.16 0.16 90 1013.7
20260506153804 60 19 2.0 5.0 0.00 0.16 0.16 90 1013.6
20260506152804 59 36 0.0 3.0 0.00 0.16 0.16 91 1013.5
20260506152306 59 54 1.0 3.0 0.00 0.16 0.16 90 1013.5
20260506151804 59 56 2.0 5.0 0.00 0.16 0.16 90 1013.2
20260506150804 59 42 2.0 3.0 0.00 0.16 0.16 91 1013.1
20260506150305 58 41 1.0 5.0 0.00 0.16 0.16 92 1013.7
20260506145805 58 36 2.0 5.0 0.00 0.16 0.16 92 1013.5
20260506145306 58 29 2.0 3.0 0.00 0.16 0.16 92 1013.5
20260506144304 58 44 1.0 2.0 0.00 0.16 0.16 92 1013.6
20260506143804 58 44 1.0 2.0 0.00 0.16 0.16 92 1013.3
20260506143304 58 44 0.0 5.0 0.01 0.16 0.16 93 1013.3
20260506142805 58 41 2.0 5.0 0.01 0.16 0.16 93 1013.5
20260506142306 58 22 1.0 2.0 0.02 0.16 0.16 93 1013.5
20260506141804 58 26 1.0 3.0 0.02 0.16 0.16 93 1013.7
20260506141304 58 305 1.0 5.0 0.03 0.16 0.16 94 1013.5
20260506140804 57 46 3.0 5.0 0.04 0.16 0.16 93 1013.5
20260506140305 57 28 1.0 3.0 0.04 0.16 0.16 94 1013.4
20260506135306 56 9 2.0 3.0 0.04 0.16 0.16 93 1014.2
20260506134805 56 288 1.0 2.0 0.04 0.16 0.16 92 1013.8
20260506134304 57 284 1.0 2.0 0.04 0.16 0.16 92 1013.9
20260506133804 56 283 0.0 3.0 0.04 0.16 0.16 91 1014.1
20260506133304 56 275 1.0 3.0 0.03 0.15 0.15 91 1014.0
20260506132804 56 313 0.0 2.0 0.03 0.15 0.15 90 1013.8
20260506132307 56 295 1.0 2.0 0.02 0.14 0.14 89 1013.7
20260506131304 57 249 1.0 5.0 0.02 0.13 0.13 89 1013.6
20260506130804 57 269 2.0 6.0 0.01 0.12 0.12 86 1013.8
20260506130304 57 258 3.0 12.0 0.01 0.12 0.12 84 1013.6
20260506125804 57 261 5.0 10.0 0.01 0.12 0.12 85 1013.7
20260506125305 57 264 6.0 10.0 0.02 0.12 0.12 85 1013.6
20260506124804 56 247 5.0 7.0 0.04 0.12 0.12 86 1013.8
20260506124304 56 226 2.0 7.0 0.06 0.12 0.12 87 1013.6
20260506123804 56 242 3.0 9.0 0.10 0.12 0.12 87 1013.4
20260506123304 56 242 5.0 9.0 0.11 0.12 0.12 87 1013.2
20260506122805 56 248 5.0 13.0 0.12 0.12 0.12 86 1013.4
20260506122306 56 241 3.0 6.0 0.12 0.12 0.12 86 1013.2
20260506121804 56 226 3.0 8.0 0.12 0.12 0.12 87 1013.4
20260506121306 56 225 5.0 9.0 0.11 0.11 0.11 87 1013.5
20260506120805 55 244 6.0 9.0 0.11 0.11 0.11 88 1013.8
20260506120304 55 174 3.0 8.0 0.11 0.11 0.11 89 1014.0
20260506115804 55 185 2.0 7.0 0.11 0.11 0.11 89 1013.9
20260506115307 55 239 3.0 7.0 0.10 0.10 0.10 90 1014.0
20260506114804 55 253 0.0 3.0 0.08 0.08 0.08 89 1014.1
20260506114304 55 261 2.0 10.0 0.06 0.06 0.06 88 1014.2
20260506113804 56 267 7.0 13.0 0.02 0.02 0.02 85 1014.1
20260506113304 57 272 3.0 10.0 0.01 0.01 0.01 81 1013.4
20260506112803 57 253 3.0 10.0 0.00 0.00 0.00 79 1012.9
20260506112306 57 240 2.0 9.0 0.00 0.00 0.00 78 1013.0
20260506111804 57 265 6.0 9.0 0.00 0.00 0.00 76 1012.7
20260506111304 57 262 6.0 14.0 0.00 0.00 0.00 75 1012.6
20260506105804 57 238 7.0 21.0 0.00 0.00 0.00 75 1011.9
20260506105305 57 222 8.0 17.0 0.00 0.00 0.00 75 1012.0
20260506104304 57 246 7.0 17.0 0.00 0.00 0.00 76 1012.0
20260506103803 57 202 11.0 17.0 0.00 0.00 0.00 75 1011.9
20260506103304 57 200 7.0 16.0 0.00 0.00 0.00 75 1012.0
20260506102305 57 285 5.0 17.0 0.00 0.00 0.00 74 1011.9
20260506101804 57 260 6.0 13.0 0.00 0.00 0.00 74 1011.8
20260506101303 57 259 6.0 18.0 0.00 0.00 0.00 73 1011.7
20260506100804 57 213 7.0 18.0 0.00 0.00 0.00 73 1011.7
20260506100303 57 227 7.0 16.0 0.00 0.00 0.00 73 1011.7
20260506095804 57 202 6.0 16.0 0.00 0.00 0.00 72 1011.5
20260506095305 57 238 5.0 14.0 0.00 0.00 0.00 72 1011.8
20260506094804 57 246 7.0 14.0 0.00 0.00 0.00 72 1011.8
20260506094303 57 172 3.0 10.0 0.00 0.00 0.00 72 1012.0
20260506093803 57 195 3.0 12.0 0.00 0.00 0.00 72 1011.7
20260506093304 57 250 3.0 15.0 0.00 0.00 0.00 71 1011.8
20260506092803 57 245 1.0 10.0 0.00 0.00 0.00 71 1011.9
20260506091803 57 225 2.0 12.0 0.00 0.00 0.00 71 1011.9
20260506091304 57 250 2.0 14.0 0.00 0.00 0.00 71 1011.8
20260506090807 57 231 6.0 14.0 0.00 0.00 0.00 71 1011.8
20260506090308 57 213 6.0 12.0 0.00 0.00 0.00 70 1011.9
20260506085808 57 266 5.0 15.0 0.00 0.00 0.00 70 1012.1
20260506085307 58 244 6.0 17.0 0.00 0.00 0.00 70 1011.9
20260506084808 58 210 8.0 22.0 0.00 0.00 0.00 68 1012.1
20260506084307 58 237 7.0 22.0 0.00 0.00 0.00 67 1012.0
20260506083807 58 241 6.0 17.0 0.00 0.00 0.00 66 1012.1
20260506083307 58 251 7.0 16.0 0.00 0.00 0.00 66 1012.0
20260506082808 58 243 9.0 18.0 0.00 0.00 0.00 66 1011.7
20260506082307 58 243 7.0 18.0 0.00 0.00 0.00 66 1012.0
20260506081808 58 247 5.0 10.0 0.00 0.00 0.00 66 1011.8
20260506081309 58 234 4.0 10.0 0.00 0.00 0.00 66 1012.0
20260506080807 58 230 3.0 9.0 0.00 0.00 0.00 65 1012.0
20260506080308 58 278 4.0 8.0 0.00 0.00 0.00 65 1012.0
20260506073307 60 179 10.0 22.0 0.00 0.00 0.00 62 1011.6
20260506072808 60 226 2.0 9.0 0.00 0.00 0.00 62 1011.8
20260506072308 60 241 6.0 17.0 0.00 0.00 0.00 61 1011.6
20260506071807 60 238 9.0 25.0 0.00 0.00 0.00 61 1011.6
20260506071307 60 209 11.0 21.0 0.00 0.00 0.00 61 1012.0
20260506070807 60 190 10.0 17.0 0.00 0.00 0.00 60 1011.8
20260506070307 61 207 7.0 18.0 0.00 0.00 0.00 60 1011.8
20260506061807 61 247 8.0 17.0 0.00 0.00 0.00 59 1011.8
20260506061307 61 261 3.0 14.0 0.00 0.00 0.00 59 1011.8
20260506060807 61 256 8.0 21.0 0.00 0.00 0.00 58 1011.8
20260506060307 61 213 7.0 17.0 0.00 0.00 0.00 58 1012.1
20260506050806 61 189 10.0 16.0 0.00 0.00 0.00 56 1012.8
20260506050307 61 243 5.0 15.0 0.00 0.00 0.00 56 1013.0
20260506044807 62 253 1.0 16.0 0.00 0.00 0.00 56 1013.0
20260506043806 62 257 5.0 20.0 0.00 0.00 0.00 55 1012.8
20260506042306 62 271 3.0 7.0 0.00 0.00 0.00 55 1012.9
20260506041807 62 225 3.0 7.0 0.00 0.00 0.00 55 1013.1
20260506041307 62 299 5.0 12.0 0.00 0.00 0.00 54 1012.8
20260506040307 62 218 7.0 14.0 0.00 0.00 0.00 54 1012.7
20260506035807 62 251 6.0 10.0 0.00 0.00 0.00 54 1012.9
20260506034807 62 222 6.0 13.0 0.00 0.00 0.00 54 1013.0
20260506034307 61 215 6.0 13.0 0.00 0.00 0.00 54 1013.1
20260506033807 62 225 3.0 16.0 0.00 0.00 0.00 54 1012.9
20260506033307 62 238 5.0 21.0 0.00 0.00 0.00 53 1013.0
20260506032806 62 228 8.0 16.0 0.00 0.00 0.00 53 1013.1
20260506031807 61 182 4.0 7.0 0.00 0.00 0.00 53 1013.3
20260506030806 61 98 3.0 12.0 0.00 0.00 0.00 53 1013.2
20260506030307 61 49 3.0 7.0 0.00 0.00 0.00 54 1012.7
20260506025806 62 66 3.0 7.0 0.00 0.00 0.00 52 1013.0
20260506025307 62 326 3.0 13.0 0.00 0.00 0.00 52 1012.8
20260506024806 62 251 9.0 13.0 0.00 0.00 0.00 52 1012.7
20260506024306 61 211 2.0 10.0 0.00 0.00 0.00 52 1013.0
20260506023807 62 92 3.0 9.0 0.00 0.00 0.00 51 1013.2
20260506022806 62 214 6.0 12.0 0.00 0.00 0.00 51 1013.1
20260506022306 62 227 5.0 10.0 0.00 0.00 0.00 51 1013.1
20260506021807 62 238 3.0 10.0 0.00 0.00 0.00 51 1013.3
20260506021306 62 271 2.0 13.0 0.00 0.00 0.00 51 1013.5
20260506020806 62 177 5.0 13.0 0.00 0.00 0.00 51 1013.2
20260506020307 62 204 2.0 8.0 0.00 0.00 0.00 51 1013.1
20260506015807 62 227 2.0 6.0 0.00 0.00 0.00 50 1013.3
20260506015307 62 282 2.0 10.0 0.00 0.00 0.00 50 1013.1
20260506014307 62 104 2.0 7.0 0.00 0.00 0.00 50 1013.3
20260506013807 62 156 5.0 12.0 0.00 0.00 0.00 49 1013.0
20260506012806 62 223 5.0 10.0 0.00 0.00 0.00 49 1013.1
20260506012308 62 255 3.0 7.0 0.00 0.00 0.00 48 1013.1
20260506011806 62 82 1.0 5.0 0.00 0.00 0.00 48 1013.3
20260506011307 62 171 1.0 8.0 0.00 0.00 0.00 48 1013.1
20260506010806 62 238 2.0 6.0 0.00 0.00 0.00 47 1013.5